Regional Weather Roundup
Issued by NWS

Home | Current Version | Previous Version | Graphics & Text | Print | Product List | Glossary On
Versions: 1 2 3 4 5 6 7 8 9 10 11 12 13 14 15 16 17 18 19 20 21 22 23 24 25 26 27 28 29 30 31 32 33 34 35 36 37 38 39 40 41 42 43 44 45 46 47 48 49 50
000
ASUS43 KOAX 191710
RWRNE

WEATHER ROUNDUP FOR NEBRASKA
NATIONAL WEATHER SERVICE OMAHA NE
1100 AM CST THU JAN 19 2017

NOTES: SATELLITE DATA IS BEING USED TO AUGMENT CLOUD COVER ABOVE
       12000 FEET.
       "FAIR" INDICATES FEW OR NO CLOUDS BELOW 12,000 FEET WITH NO
       SIGNIFICANT WEATHER AND/OR OBSTRUCTIONS TO VISIBILITY.

  * THESE STATIONS DO NOT REPORT WEATHER SUCH AS RAIN...SNOW OR FOG.

NEZ001>004-019>022-054>056-191800-
NEBRASKA PANHANDLE

CITY           SKY/WX    TMP DP  RH WIND       PRES   REMARKS
SCOTTSBLUFF    SUNNY     38  24  57 CALM      29.59S
ALLIANCE       SUNNY     39  27  62 W7        29.57S WCI  34
CHADRON        CLOUDY    31  20  63 SW9       29.55F WCI  23
KIMBALL        SUNNY     42  28  58 W5        29.60S
SIDNEY         SUNNY     40  26  57 W7        29.59F
$$

NEZ057>060-069>072-079>082-191800-
SOUTHWEST NEBRASKA

CITY           SKY/WX    TMP DP  RH WIND       PRES   REMARKS
NORTH PLATTE   FOG       34  33  96 W6        29.64S VSB 1/4 WCI  29
IMPERIAL       SUNNY     34  27  75 CALM      29.64R
LEXINGTON      FOG       39  38  94 SE3       29.64F VSB 1/4
MCCOOK         FOG       37  37 100 CALM      29.64S VSB 1/4
OGALLALA       SUNNY     31  27  82 CALM      29.62F
$$

NEZ005>010-023>029-035>040-094-191800-
NORTH CENTRAL NEBRASKA

CITY           SKY/WX    TMP DP  RH WIND       PRES   REMARKS
VALENTINE      SUNNY     43  26  51 SW12      29.56F
AINSWORTH      FOG       35  35 100 S14       29.59R VSB 1   WCI  26
BROKEN BOW     CLOUDY    40  39  97 S9        29.63S FOG     WCI  34
O`NEILL        CLOUDY    41  40  99 S12       29.63F FOG
ORD            CLOUDY    38  37  97 SE6       29.65S FOG     WCI  33
THEDFORD       FOG       32  32  99 S9        29.62R VSB 3/4 WCI  24
$$

NEZ041-046>049-061>064-073>077-083>087-191800-
SOUTH CENTRAL NEBRASKA

CITY           SKY/WX    TMP DP  RH WIND       PRES   REMARKS
GRAND ISLAND   CLOUDY    39  39 100 SE7       29.68F FOG     WCI  34
AURORA         FOG       38  38 100 SE7       29.70S VSB 1/4 WCI  33
HASTINGS       FOG       39  38  96 SE7       29.69F VSB 1   WCI  34
HEBRON         CLOUDY    41  41  99 SE8       29.73S FOG
HOLDREGE       FOG       40  40  97 S7        29.65S VSB 1/4
KEARNEY *      CLOUDY    39  37  93 SE9       29.65F WCI  33
YORK           FOG       39  39 100 SE8       29.71F VSB 1/4 WCI  34
$$

NEZ011>018-030>034-042>045-191800-
NORTHEAST NEBRASKA

CITY           SKY/WX    TMP DP  RH WIND       PRES   REMARKS
NORFOLK        CLOUDY    38  37  97 SE8       29.70S FOG     WCI  32
ALBION         FOG       37  37  99 SE8       29.69S VSB 1/2 WCI  30
BLAIR          FOG       39  39  97 SE8       29.76F VSB 3/4 WCI  34
FREMONT        CLOUDY    38  38 100 SE3       29.76F FOG
TEKAMAH        CLOUDY    36  34  92 SE3       29.78F FOG
WAYNE          CLOUDY    37  37  99 SE9       29.73S FOG     WCI  30
$$

NEZ050>053-065>068-078-088>093-191800-
SOUTHEAST NEBRASKA

CITY           SKY/WX    TMP DP  RH WIND       PRES   REMARKS
LINCOLN        FOG       40  39  97 SE5       29.77S VSB 3/4
OMAHA EPPLEY   CLOUDY    40  36  86 SE12      29.79S FOG     WCI  33
BEATRICE       CLOUDY    42  41  99 SE8       29.76S FOG
FALLS CITY     FOG       43  42  97 E7        29.78F VSB 1/4
NEBRASKA CITY  FOG       39  39 100 CALM      29.79S VSB<1/4
PLATTSMOUTH    CLOUDY    39  37  92 SE7       29.79S FOG     WCI  34
$$

NEZ044-045-051>053-067-191800-
OMAHA AREA

CITY           SKY/WX    TMP DP  RH WIND       PRES   REMARKS
OMAHA EPPLEY   CLOUDY    40  36  86 SE12      29.79S FOG     WCI  33
BLAIR          FOG       39  39  97 SE8       29.76F VSB 3/4 WCI  34
FREMONT        CLOUDY    38  38 100 SE3       29.76F FOG
MILLARD        FOG       40  40  97 SE8       29.78S VSB 3/4
OFFUTT AFB     PTSUNNY   39  39 100 SE3       29.79S FOG
PLATTSMOUTH    CLOUDY    39  37  92 SE7       29.79S FOG     WCI  34
WAHOO          FOG       37  36  96 SE8       29.76F VSB 1/2 WCI  31
$$



USA.gov is the U.S. government's official web portal to all federal, state and local government web resources and services.